Meteo pe oră la Almansa

Astăzi, 21 Ianuarie, Joi

Timp Temperatura Precipitaţii Vânt Presiune Umiditate
00:00 +6°C° 0 mm 5 m/s 699 mmHg 80%
01:00 +6°C° 0 mm 5 m/s 699 mmHg 81%
02:00 +7°C° 0 mm 6 m/s 699 mmHg 82%
03:00 +7°C° 0 mm 6 m/s 699 mmHg 83%
04:00 +5°C° 0 mm 6 m/s 699 mmHg 85%
05:00 +5°C° 0 mm 6 m/s 700 mmHg 86%
06:00 +5°C° 0 mm 6 m/s 700 mmHg 88%
07:00 +6°C° 0 mm 7 m/s 700 mmHg 85%
08:00 +6°C° 0 mm 8 m/s 701 mmHg 83%
09:00 +7°C° 0 mm 9 m/s 701 mmHg 80%
10:00 +8°C° 0 mm 10 m/s 701 mmHg 73%
11:00 +9°C° 0 mm 11 m/s 702 mmHg 67%
12:00 +10°C° 0 mm 12 m/s 702 mmHg 61%
13:00 +10°C° 0 mm 12 m/s 701 mmHg 62%
14:00 +9°C° 0 mm 12 m/s 701 mmHg 64%
15:00 +9°C° 0 mm 11 m/s 700 mmHg 65%
16:00 +8°C° 0 mm 10 m/s 700 mmHg 68%
17:00 +8°C° 0 mm 9 m/s 700 mmHg 71%
18:00 +8°C° 0 mm 7 m/s 700 mmHg 75%
19:00 +8°C° 0 mm 7 m/s 700 mmHg 76%
20:00 +8°C° 0 mm 7 m/s 700 mmHg 77%
21:00 +8°C° 0 mm 7 m/s 700 mmHg 79%
22:00 +8°C° 0 mm 7 m/s 700 mmHg 79%
23:00 +8°C° 0 mm 6 m/s 700 mmHg 79%

Mâine, 22 Ianuarie, Vineri

Timp Temperatura Precipitaţii Vânt Presiune Umiditate
00:00 +8°C° 0 mm 6 m/s 699 mmHg 79%
01:00 +8°C° 0 mm 6 m/s 699 mmHg 80%
02:00 +8°C° 0 mm 6 m/s 698 mmHg 80%
03:00 +8°C° 0 mm 6 m/s 697 mmHg 80%
04:00 +8°C° 0 mm 6 m/s 697 mmHg 80%
05:00 +8°C° 0 mm 7 m/s 696 mmHg 80%
06:00 +8°C° 0 mm 7 m/s 696 mmHg 80%
07:00 +8°C° 0.1 mm 10 m/s 696 mmHg 78%
08:00 +8°C° 0.1 mm 13 m/s 696 mmHg 75%
09:00 +9°C° 0.1 mm 16 m/s 696 mmHg 73%
10:00 +9°C° 0.1 mm 16 m/s 696 mmHg 65%
11:00 +9°C° 0.1 mm 17 m/s 696 mmHg 58%
12:00 +9°C° 0.1 mm 17 m/s 696 mmHg 51%
13:00 +7°C° 0.1 mm 17 m/s 696 mmHg 57%
14:00 +6°C° 0.1 mm 17 m/s 696 mmHg 64%
15:00 +5°C° 0.1 mm 16 m/s 696 mmHg 70%
16:00 +5°C° 0.2 mm 15 m/s 697 mmHg 70%
17:00 +4°C° 0.2 mm 14 m/s 697 mmHg 71%
18:00 +4°C° 0.2 mm 13 m/s 698 mmHg 71%
19:00 +4°C° 0 mm 14 m/s 698 mmHg 72%
20:00 +3°C° 0 mm 14 m/s 699 mmHg 74%
21:00 +2°C° 0 mm 15 m/s 699 mmHg 75%
22:00 +3°C° 0 mm 13 m/s 699 mmHg 76%
23:00 +2°C° 0 mm 12 m/s 700 mmHg 76%

Poimâine, 23 Ianuarie, Sâmbătă

Timp Temperatura Precipitaţii Vânt Presiune Umiditate
00:00 +2°C° 0 mm 11 m/s 700 mmHg 77%
01:00 +2°C° 0 mm 10 m/s 700 mmHg 77%
02:00 +1°C° 0 mm 10 m/s 700 mmHg 77%
03:00 +1°C° 0 mm 9 m/s 700 mmHg 77%
04:00 +1°C° 0 mm 10 m/s 700 mmHg 76%
05:00 +1°C° 0 mm 11 m/s 700 mmHg 75%
06:00 +2°C° 0 mm 11 m/s 700 mmHg 74%
07:00 +2°C° 0 mm 12 m/s 700 mmHg 73%
08:00 +3°C° 0 mm 12 m/s 700 mmHg 71%
09:00 +3°C° 0 mm 13 m/s 700 mmHg 70%
10:00 +4°C° 0 mm 14 m/s 700 mmHg 67%
11:00 +5°C° 0 mm 14 m/s 700 mmHg 64%
12:00 +6°C° 0 mm 15 m/s 700 mmHg 61%
13:00 +6°C° 0 mm 14 m/s 700 mmHg 62%
14:00 +7°C° 0 mm 13 m/s 699 mmHg 64%
15:00 +7°C° 0 mm 13 m/s 699 mmHg 65%
16:00 +6°C° 0 mm 11 m/s 698 mmHg 69%
17:00 +6°C° 0 mm 10 m/s 698 mmHg 72%
18:00 +5°C° 0 mm 8 m/s 697 mmHg 75%
19:00 +5°C° 0 mm 8 m/s 697 mmHg 76%
20:00 +5°C° 0 mm 8 m/s 696 mmHg 77%
21:00 +5°C° 0 mm 8 m/s 696 mmHg 78%
22:00 +6°C° 0 mm 9 m/s 695 mmHg 79%
23:00 +6°C° 0 mm 10 m/s 695 mmHg 80%

24 Ianuarie, Duminică

Timp Temperatura Precipitaţii Vânt Presiune Umiditate
00:00 +7°C° 0 mm 11 m/s 695 mmHg 80%
01:00 +7°C° 0.1 mm 12 m/s 694 mmHg 80%
02:00 +8°C° 0.1 mm 13 m/s 694 mmHg 80%
03:00 +9°C° 0.1 mm 15 m/s 694 mmHg 80%
04:00 +7°C° 0 mm 16 m/s 694 mmHg 77%
05:00 +6°C° 0 mm 17 m/s 695 mmHg 73%
06:00 +5°C° 0 mm 18 m/s 695 mmHg 70%
07:00 +5°C° 0 mm 18 m/s 696 mmHg 70%
08:00 +5°C° 0 mm 17 m/s 697 mmHg 69%
09:00 +5°C° 0 mm 16 m/s 698 mmHg 69%
10:00 +6°C° 0 mm 15 m/s 698 mmHg 64%
11:00 +8°C° 0 mm 14 m/s 698 mmHg 60%
12:00 +8°C° 0 mm 12 m/s 699 mmHg 55%
13:00 +8°C° 0 mm 12 m/s 699 mmHg 57%
14:00 +8°C° 0 mm 11 m/s 699 mmHg 59%
15:00 +8°C° 0 mm 10 m/s 699 mmHg 60%
16:00 +7°C° 0 mm 9 m/s 699 mmHg 64%
17:00 +7°C° 0 mm 9 m/s 699 mmHg 67%
18:00 +6°C° 0 mm 9 m/s 699 mmHg 70%
19:00 +6°C° 0 mm 8 m/s 700 mmHg 71%
20:00 +5°C° 0 mm 8 m/s 700 mmHg 73%
21:00 +5°C° 0 mm 8 m/s 701 mmHg 74%
22:00 +5°C° 0 mm 8 m/s 701 mmHg 75%
23:00 +5°C° 0 mm 8 m/s 701 mmHg 77%

25 Ianuarie, Luni

Timp Temperatura Precipitaţii Vânt Presiune Umiditate
00:00 +5°C° 0 mm 8 m/s 701 mmHg 78%
01:00 +5°C° 0 mm 8 m/s 701 mmHg 79%
02:00 +5°C° 0 mm 8 m/s 701 mmHg 80%
03:00 +4°C° 0 mm 7 m/s 701 mmHg 80%
04:00 +4°C° 0 mm 6 m/s 701 mmHg 82%
05:00 +5°C° 0 mm 5 m/s 701 mmHg 83%
06:00 +5°C° 0 mm 5 m/s 701 mmHg 85%
07:00 +5°C° 0 mm 5 m/s 702 mmHg 83%
08:00 +5°C° 0 mm 5 m/s 703 mmHg 81%
09:00 +5°C° 0 mm 6 m/s 703 mmHg 80%
10:00 +7°C° 0 mm 6 m/s 703 mmHg 74%
11:00 +8°C° 0 mm 6 m/s 704 mmHg 68%
12:00 +9°C° 0 mm 6 m/s 704 mmHg 63%
13:00 +10°C° 0 mm 6 m/s 704 mmHg 62%
14:00 +10°C° 0 mm 6 m/s 703 mmHg 61%
15:00 +10°C° 0 mm 6 m/s 703 mmHg 60%
16:00 +9°C° 0 mm 5 m/s 703 mmHg 66%
17:00 +8°C° 0 mm 5 m/s 704 mmHg 72%
18:00 +7°C° 0 mm 4 m/s 704 mmHg 78%
19:00 +6°C° 0 mm 4 m/s 704 mmHg 80%
20:00 +6°C° 0 mm 4 m/s 704 mmHg 83%
21:00 +5°C° 0 mm 4 m/s 705 mmHg 86%
22:00 +5°C° 0 mm 4 m/s 705 mmHg 87%
23:00 +5°C° 0 mm 4 m/s 705 mmHg 88%

26 Ianuarie, Marţi

Timp Temperatura Precipitaţii Vânt Presiune Umiditate
00:00 +5°C° 0 mm 4 m/s 705 mmHg 88%
01:00 +5°C° 0 mm 4 m/s 705 mmHg 89%
02:00 +5°C° 0 mm 4 m/s 705 mmHg 90%
03:00 +5°C° 0 mm 4 m/s 705 mmHg 91%
04:00 +5°C° 0 mm 4 m/s 705 mmHg 91%
05:00 +5°C° 0 mm 4 m/s 705 mmHg 91%
06:00 +6°C° 0 mm 4 m/s 705 mmHg 91%
07:00 +7°C° 0 mm 5 m/s 706 mmHg 89%
08:00 +8°C° 0 mm 5 m/s 706 mmHg 87%
09:00 +9°C° 0 mm 6 m/s 707 mmHg 85%
10:00 +10°C° 0 mm 7 m/s 707 mmHg 79%
11:00 +11°C° 0 mm 8 m/s 707 mmHg 73%
12:00 +12°C° 0 mm 9 m/s 707 mmHg 68%
13:00 +13°C° 0 mm 9 m/s 707 mmHg 67%
14:00 +13°C° 0 mm 10 m/s 706 mmHg 66%
15:00 +13°C° 0 mm 10 m/s 706 mmHg 66%
16:00 +12°C° 0 mm 10 m/s 706 mmHg 70%
17:00 +11°C° 0 mm 10 m/s 706 mmHg 73%
18:00 +11°C° 0 mm 9 m/s 706 mmHg 77%
19:00 +10°C° 0 mm 9 m/s 706 mmHg 80%
20:00 +10°C° 0 mm 8 m/s 707 mmHg 83%
21:00 +10°C° 0 mm 8 m/s 707 mmHg 85%
22:00 +10°C° 0 mm 8 m/s 707 mmHg 87%
23:00 +10°C° 0 mm 7 m/s 707 mmHg 88%
Arată mai mult

Formular de consimțământ

Meteoprog și furnizorii noștri de servicii pot stoca și accesa date personale, precum cookies, identificatori de dispozitiv sau alte tehnologii similare pe dispozitivul dumneavoastră și procesa astfel de date pentru a personaliza conținutul și reclamele, dar și pentru a oferi caracteristici de social media și pentru a analiza traficul.

  • Stocarea și/sau accesarea informațiilor pe dispozitivul dumneavoastră

    Cookies, identificatori de dispozitiv sau alte informații pot fi stocate sau accesate pe dispozitiv în scopurile indicate mai sus.

  • Reclame și conținut personalizat, evaluarea reclamelor și a conținutului, informații despre audiențe și dezvoltarea produselor

    Reclamele și conținutul pot fi personalizate pe baza unui profil. Pot fi adăugate date suplimentare pentru a personaliza mai bine reclamele și conținutul. Performanța reclamelor și conținutului poate fi măsurată. Pot fi obținute informații despre utilizatorii care au văzut reclamele și conținutul. Aceste date pot fi utilizate pentru a dezvolta sau îmbunătăți experiența utilizatorilor, sistemele și software-ul.

Dând clic pe ‘Sunt de acord’, permiteți utilizarea cookie-urilor menționate, a identificatorilor de dispozitiv, balizelor web sau altor tehnologii similare. Setările pot fi modificate din browser-ul dispozitivului dumneavoastră.

În anumite scopuri, interesele legitime pot prima asupra consimțământului. Puteți citi mai multe informații în acest sens în Politica privind Confidențialitatea Datelor și Cookie.